CAPE
0 0 0 0 0 0 0 0 0 0 0 0 0 0 0 0 0 0 0 0 0 0 0 0 0 0 0 0 10 82 162 469 653
0 0 0 0 0 0 0 0 0 0 0 0 0 0 0 0 0 0 0 0 0 0 0 0 0 0 0 0 3 38 91 127 171
0 0 0 0 0 0 0 0 0 0 0 0 0 0 0 0 0 0 0 0 0 0 0 0 0 0 0 6 3 25 61 67 114
0 0 0 0 0 0 0 0 0 0 0 0 0 0 0 0 0 0 0 0 0 0 0 0 1 1 8 3 4 2 6 24 281
0 0 0 0 0 0 0 0 0 0 0 0 0 0 0 0 0 0 0 0 0 0 0 1 7 8 1 0 0 3 0 2 11
0 0 0 0 0 0 0 0 0 0 0 0 0 0 0 0 0 1 0 23 17 13 8 17 8 9 8 11 18 9 8 6 17
0 0 0 0 0 0 0 0 0 0 0 0 0 0 0 0 0 2 0 0 9 11 14 6 3 0 0 13 9 25 17 0 6
0 0 0 0 0 0 0 0 0 0 0 0 0 0 0 0 0 1 3 8 6 5 7 5 4 2 55 42 28 12 10 19 0
0 0 0 0 0 0 0 0 0 0 0 0 0 0 0 0 0 0 0 1 14 26 20 22 21 1 11 0 0 13 11 0 21
0 0 0 0 0 0 0 0 0 0 0 0 0 0 0 0 0 0 0 0 5 11 22 18 17 15 23 39 19 2 28 32 23
0 0 0 0 0 0 0 0 0 0 0 0 0 0 0 0 0 0 0 0 0 1 7 5 5 5 28 37 24 25 5 4 5
0 0 0 0 0 0 0 0 0 0 0 0 0 0 0 0 0 0 0 0 0 0 0 1 4 6 8 30 34 34 29 30 36
0 0 0 0 0 0 0 0 0 0 0 0 0 0 0 0 0 0 0 0 0 0 0 0 0 4 3 14 30 26 25 17 10
0 0 0 0 0 0 0 0 0 0 0 0 0 0 0 0 0 0 0 0 0 0 0 0 0 0 3 4 4 9 6 9 3
0 0 0 0 0 0 0 0 0 0 0 0 0 0 0 0 0 0 0 0 0 0 0 0 0 0 0 0 0 0 1 2 0
0 0 0 0 0 0 0 0 0 0 0 0 0 0 0 0 0 0 0 0 0 0 0 0 0 0 0 0 0 0 0 1 2
0 0 0 0 0 0 0 0 0 0 0 0 0 0 0 0 0 0 0 0 0 0 0 0 0 0 0 0 0 0 0 0 2
0 0 0 0 0 0 0 0 0 0 0 0 0 0 0 0 0 0 0 0 0 0 0 0 0 0 0 0 0 0 0 0 0
0 0 0 0 0 0 0 0 0 0 0 0 0 0 0 0 0 0 0 0 0 0 0 0 0 0 0 0 0 0 0 0 0
0 0 0 0 0 0 0 0 0 0 0 0 0 0 0 0 0 0 0 0 0 0 0 0 0 0 0 0 0 0 0 0 0
CIN
-0 -0 -0 -0 -0 -0 -0 -0 -0 -0 -0 -0 -0 -0 -0 -0 -0 -0 -0 -0 -0 -0 -0 -0 -0 -0 -0 -0 -280 -112 -48 -1 -0
-0 -0 -0 -0 -0 -0 -0 -0 -0 -0 -0 -0 -0 -0 -0 -0 -0 -0 -0 -0 -0 -0 -0 -0 -0 -0 -0 -0 -136 -208 -144 -105 -66
-0 -0 -0 -0 -0 -0 -0 -0 -0 -0 -0 -0 -0 -0 -0 -0 -0 -0 -0 -0 -0 -0 -0 -0 -0 -0 -0 -0 -85 -275 -223 -197 -123
-0 -0 -0 -0 -0 -0 -0 -0 -0 -0 -0 -0 -0 -0 -0 -0 -0 -0 -0 -0 -0 -0 -0 -0 -0 -0 -0 -0 -0 -0 -391 -323 -43
-0 -0 -0 -0 -0 -0 -0 -0 -0 -0 -0 -0 -0 -0 -0 -0 -0 -0 -0 -0 -0 -0 -0 -0 -0 -0 -0 -0 -0 -0 -0 -130 -364
-0 -0 -0 -0 -0 -0 -0 -0 -0 -0 -0 -0 -0 -0 -0 -0 -0 -0 -1 -0 -0 -0 -0 -1 -0 -0 -0 -1 -2 -2 -1 -0 -321
-0 -0 -0 -0 -0 -0 -0 -0 -0 -0 -0 -0 -0 -0 -0 -0 -0 -1 -0 -0 -0 -0 -5 -1 -0 -0 -0 -2 -0 -0 -1 -0 -0
-0 -0 -0 -0 -0 -0 -0 -0 -0 -0 -0 -0 -0 -0 -0 -0 -0 -0 -6 -1 -0 -0 -0 -1 -0 -0 -0 -0 -0 -0 -0 -1 -0
-0 -0 -0 -0 -0 -0 -0 -0 -0 -0 -0 -0 -0 -0 -0 -0 -0 -0 -0 -7 -1 -0 -0 -1 -2 -0 -3 -0 -0 -0 -0 -0 -3
-0 -0 -0 -0 -0 -0 -0 -0 -0 -0 -0 -0 -0 -0 -0 -0 -0 -0 -0 -0 -1 -1 -1 -1 -1 -1 -0 -0 -0 -0 -0 -0 -0
-0 -0 -0 -0 -0 -0 -0 -0 -0 -0 -0 -0 -0 -0 -0 -0 -0 -0 -0 -0 -0 -0 -0 -0 -1 -2 -0 -0 -0 -0 -0 -0 -0
-0 -0 -0 -0 -0 -0 -0 -0 -0 -0 -0 -0 -0 -0 -0 -0 -0 -0 -0 -0 -0 -0 -0 -0 -0 -1 -1 -1 -0 -0 -0 -0 -0
-0 -0 -0 -0 -0 -0 -0 -0 -0 -0 -0 -0 -0 -0 -0 -0 -0 -0 -0 -0 -0 -0 -0 -0 -0 -0 -0 -1 -0 -0 -0 -0 -0
-0 -0 -0 -0 -0 -0 -0 -0 -0 -0 -0 -0 -0 -0 -0 -0 -0 -0 -0 -0 -0 -0 -0 -0 -0 -0 -0 -0 -0 -0 -0 -0 -1
-0 -0 -0 -0 -0 -0 -0 -0 -0 -0 -0 -0 -0 -0 -0 -0 -0 -0 -0 -0 -0 -0 -0 -0 -0 -0 -0 -0 -0 -0 -0 -0 -0
-0 -0 -0 -0 -0 -0 -0 -0 -0 -0 -0 -0 -0 -0 -0 -0 -0 -0 -0 -0 -0 -0 -0 -0 -0 -0 -0 -0 -0 -0 -0 -0 -0
-0 -0 -0 -0 -0 -0 -0 -0 -0 -0 -0 -0 -0 -0 -0 -0 -0 -0 -0 -0 -0 -0 -0 -0 -0 -0 -0 -0 -0 -0 -0 -0 -0
-0 -0 -0 -0 -0 -0 -0 -0 -0 -0 -0 -0 -0 -0 -0 -0 -0 -0 -0 -0 -0 -0 -0 -0 -0 -0 -0 -0 -0 -0 -0 -0 -0
-0 -0 -0 -0 -0 -0 -0 -0 -0 -0 -0 -0 -0 -0 -0 -0 -0 -0 -0 -0 -0 -0 -0 -0 -0 -0 -0 -0 -0 -0 -0 -0 -0
-0 -0 -0 -0 -0 -0 -0 -0 -0 -0 -0 -0 -0 -0 -0 -0 -0 -0 -0 -0 -0 -0 -0 -0 -0 -0 -0 -0 -0 -0 -0 -0 -0
Wind_Speed
24 25 25 24 24 24 24 25 25 25 25 25 25 24 23 20 20 20 19 19 20 21 20 18 18 18 18 18 17 19 21 20 20
24 24 24 24 24 24 24 24 24 25 25 25 24 24 23 22 21 20 19 20 20 21 20 20 19 18 18 18 17 17 20 21 21
22 23 23 24 24 24 24 24 24 24 24 24 24 24 22 22 22 21 21 21 21 21 20 19 19 18 18 18 18 18 19 21 21
22 22 23 23 23 23 23 23 23 24 24 24 24 24 23 23 23 22 22 22 22 21 20 20 20 19 19 19 19 19 20 20 20
22 21 22 23 23 23 23 23 23 23 24 24 24 23 23 23 23 23 23 23 22 22 21 21 21 21 20 19 19 19 20 20 20
21 21 21 22 22 23 23 23 23 22 24 24 24 22 23 23 24 23 24 21 23 23 23 22 22 22 21 20 20 21 20 20 20
20 21 21 22 22 22 22 22 22 21 22 22 23 24 24 24 24 24 24 23 23 24 24 23 23 23 21 21 22 22 21 20 20
18 18 19 20 21 21 21 21 22 22 22 22 23 23 23 23 24 25 25 24 23 23 23 23 22 23 24 24 24 23 22 21 19
17 18 19 19 20 20 20 21 21 21 22 22 23 23 23 23 23 25 25 24 24 24 24 24 25 22 23 23 23 23 23 20 20
16 17 18 19 19 20 20 20 21 20 21 21 22 22 23 23 22 23 25 25 25 24 24 24 25 24 24 25 22 23 21 21 20
15 16 17 18 19 19 19 19 20 19 19 20 21 21 22 23 22 22 23 24 24 24 24 24 24 24 24 26 23 22 21 21 21
14 15 16 17 18 18 18 19 19 19 19 19 20 20 21 21 22 22 22 22 24 24 24 24 23 24 23 24 25 24 22 22 21
13 14 15 16 17 17 18 18 19 18 18 18 19 19 20 20 21 21 22 22 23 23 24 23 23 23 23 23 24 24 24 23 23
12 13 14 15 16 17 17 18 18 17 17 18 18 18 19 19 20 20 21 22 22 23 23 23 23 23 23 23 23 24 24 24 24
11 12 13 14 15 16 16 17 18 17 17 17 17 17 18 18 19 19 20 22 23 22 23 22 22 23 23 24 24 24 24 25 26
10 11 12 13 14 15 15 16 17 18 17 16 16 17 17 18 17 18 19 21 22 22 22 22 21 21 22 24 24 24 25 25 26
9 10 11 12 13 14 15 14 15 17 18 16 16 17 17 17 18 18 19 22 21 22 21 22 21 21 21 23 25 25 26 26 27
9 9 10 11 12 13 14 15 15 15 18 19 17 18 20 19 18 19 19 23 21 23 22 21 20 20 21 22 24 27 28 29 30
9 8 9 10 11 12 14 15 15 16 16 18 19 20 19 21 20 18 19 23 22 24 23 21 20 20 20 21 25 28 30 31 32
8 8 8 9 10 11 12 13 15 16 17 18 18 19 20 21 20 22 21 22 22 24 22 21 20 20 20 21 27 30 32 33 34
Wind_Direction
62 62 60 56 54 53 53 51 46 45 45 44 41 41 43 47 44 35 28 26 14 15 19 26 23 19 16 14 18 356 324 321 322
57 59 57 56 52 50 51 49 47 45 43 45 44 42 44 45 42 37 31 17 17 16 15 14 18 22 21 19 18 18 334 320 313
50 49 52 53 51 48 49 51 49 47 45 44 45 42 46 48 41 33 27 10 15 18 20 18 17 21 24 19 16 18 353 327 316
45 41 43 46 47 45 47 47 48 47 47 47 44 44 47 47 41 30 16 11 18 26 27 24 21 23 24 20 15 13 357 336 325
51 45 35 39 42 42 42 42 45 46 47 48 46 50 52 48 42 25 16 17 22 31 37 37 32 26 28 31 20 14 358 336 327
57 38 33 34 37 38 40 38 41 50 48 47 47 53 50 50 42 30 358 28 26 32 36 43 32 26 31 32 26 0 356 344 333
55 55 39 35 37 37 38 38 42 52 50 49 49 46 48 51 45 35 5 13 13 19 24 32 34 27 31 30 27 4 357 349 339
62 58 54 46 42 42 44 42 40 42 47 45 45 45 48 53 49 32 15 9 18 19 22 28 37 30 18 20 20 26 13 357 359
52 54 51 48 44 43 45 42 41 42 44 43 45 44 46 50 51 37 21 12 11 16 19 18 21 30 9 356 360 6 5 7 358
40 46 46 49 45 42 45 44 41 41 42 43 44 43 43 47 50 43 26 21 15 15 14 13 13 20 10 352 8 3 7 8 5
31 38 40 45 45 41 44 44 39 39 42 43 43 42 43 44 46 44 35 23 18 17 15 12 10 7 360 359 7 8 3 359 356
24 29 35 39 42 40 45 41 36 40 42 42 42 42 41 42 40 38 33 31 20 13 11 11 8 358 351 352 5 6 5 4 4
17 22 29 34 38 39 40 40 37 39 41 40 40 41 41 40 36 34 30 26 20 19 9 7 2 358 355 351 353 359 2 1 357
8 14 25 29 31 35 34 33 33 36 37 37 37 38 37 36 35 31 26 21 18 14 13 8 4 360 355 353 351 349 348 348 349
358 8 20 22 24 29 30 28 27 29 32 36 31 30 30 29 28 26 24 17 11 13 9 9 7 360 358 354 351 349 346 344 342
350 1 14 16 14 20 28 23 24 23 22 28 25 24 23 20 21 20 17 10 8 7 7 5 3 3 1 354 352 350 347 345 342
340 354 5 11 11 14 19 21 14 14 11 19 16 9 13 12 11 11 8 5 7 6 3 360 0 360 357 354 351 347 344 341 339
332 346 359 5 4 6 12 13 6 7 8 10 8 1 353 0 5 360 360 356 1 358 0 358 359 357 355 352 348 342 339 335 332
323 340 353 359 359 2 7 10 8 2 1 4 4 4 360 351 349 357 354 349 352 352 353 355 355 353 352 351 345 339 335 332 329
316 331 345 352 354 359 4 7 4 358 355 356 359 358 358 355 350 342 347 348 345 346 349 349 348 348 345 343 336 334 331 328 326